This demonstration page uses our WeatherBlox Daily Observations layout. Learn more.

40.92945, -100.16068

Hourly Observations for December 9, 2018

Temp ( °F °C ) Dew Point ( °F °C ) Humidity (%) Winds ( mph kmh ) Pressure ( in mb ) Visibility ( mi km ) Precip ( " mm )
12:15 am 00:15 Clear 15 -9.4 13 -10.6 91 91 NNW 5 7 30.5 1033 7 11.26538 0 0
12:35 am 00:35 Clear 14 -10 11 -11.5 89 89 Calm 30.5 1033 7 11.26538 0 0
12:55 am 00:55 Partly Cloudy with Mist and Fog 15 -9.5 13 -10.8 90 90 W 5 7 30.5 1033 4 6.43736 0 0
1:15 am 01:15 Clear with Mist and Fog 14 -9.9 12 -11.2 90 90 WNW 6 9 30.5 1033 5 8.0467 0 0
1:35 am 01:35 Clear 15 -9.7 12 -11.2 89 89 WNW 7 11 30.5 1033 7 11.26538 0 0
1:55 am 01:55 Clear with Mist and Fog 15 -9.2 13 -10.6 90 90 WNW 8 13 30.5 1033 5 8.0467 0 0
2:15 am 02:15 Clear with Mist and Fog 16 -8.7 14 -10 90 90 W 8 13 30.5 1033 5 8.0467 0 0
2:35 am 02:35 Clear 16 -9 13 -10.4 90 90 W 6 9 30.5 1033 7 11.26538 0 0
2:55 am 02:55 Clear 17 -8.1 15 -9.4 90 90 W 9 15 30.48 1032 7 11.26538 0 0
3:15 am 03:15 Clear 17 -8.3 14 -9.8 89 89 W 3 6 30.48 1032 7 11.26538 0 0
3:35 am 03:35 Clear 16 -9.1 13 -10.6 89 89 W 8 13 30.5 1033 7 11.26538 0 0
3:55 am 03:55 Clear 16 -9.1 13 -10.6 89 89 W 7 11 30.5 1033 7 11.26538 0 0
4:15 am 04:15 Clear 18 -8 15 -9.5 89 89 WNW 7 11 30.48 1032 7 11.26538 0 0
4:35 am 04:35 Clear 17 -8.5 14 -10.1 88 88 W 5 7 30.5 1033 7 11.26538 0 0
4:55 am 04:55 Clear 15 -9.3 13 -10.8 89 89 W 3 6 30.5 1033 7 11.26538 0 0
5:15 am 05:15 Clear 14 -9.9 11 -11.6 88 88 W 5 7 30.5 1033 7 11.26538 0 0
5:35 am 05:35 Clear 14 -10 11 -11.5 89 89 W 5 7 30.5 1033 7 11.26538 0 0
5:55 am 05:55 Clear 15 -9.2 13 -10.6 90 90 WNW 9 15 30.5 1033 7 11.26538 0 0
6:15 am 06:15 Clear 16 -8.8 13 -10.5 88 88 WNW 10 17 30.5 1033 10 16.0934 0 0
6:35 am 06:35 Clear 17 -8.5 13 -10.3 87 87 WNW 9 15 30.53 1034 10 16.0934 0 0
6:55 am 06:55 Clear 17 -8.2 14 -10.1 86 86 WNW 9 15 30.53 1034 10 16.0934 0 0
7:15 am 07:15 Clear 17 -8.2 13 -10.3 85 85 WNW 10 17 30.53 1034 10 16.0934 0 0
7:35 am 07:35 Clear 17 -8.5 13 -10.5 86 86 WNW 8 13 30.53 1034 10 16.0934 0 0
7:55 am 07:55 Sunny 16 -8.7 12 -10.9 84 84 W 6 9 30.53 1034 10 16.0934 0 0
8:15 am 08:15 Sunny 14 -10 10 -12 85 85 W 5 7 30.5 1033 10 16.0934 0 0
8:35 am 08:35 Sunny 16 -8.9 13 -10.8 86 86 W 8 13 30.53 1034 10 16.0934 0 0
8:55 am 08:55 Sunny 18 -7.9 14 -10 85 85 W 9 15 30.5 1033 10 16.0934 0 0
9:15 am 09:15 Sunny 19 -7.2 15 -9.5 84 84 WNW 9 15 30.5 1033 10 16.0934 0 0
9:35 am 09:35 Sunny 21 -6.3 16 -9.1 81 81 WNW 12 19 30.5 1033 10 16.0934 0 0
9:55 am 09:55 Sunny 22 -5.5 17 -8.6 79 79 WNW 12 19 30.5 1033 10 16.0934 0 0
10:15 am 10:15 Sunny 24 -4.7 17 -8.2 77 77 WNW 14 22 30.48 1032 10 16.0934 0 0
10:35 am 10:35 Sunny 25 -3.9 18 -7.6 76 76 WNW 13 20 30.48 1032 10 16.0934 0 0
10:55 am 10:55 Sunny 26 -3.2 19 -7.4 73 73 WNW 16 26 30.48 1032 10 16.0934 0 0
11:15 am 11:15 Sunny 28 -2.5 19 -7 72 72 NW 13 20 30.48 1032 10 16.0934 0 0
11:35 am 11:35 Sunny 29 -1.9 20 -6.4 72 72 WNW 12 19 30.45 1031 10 16.0934 0 0
11:55 am 11:55 Sunny 29 -1.4 21 -6.1 71 71 WNW 14 22 30.45 1031 10 16.0934 0 0
12:15 pm 12:15 Sunny 30 -1 21 -6.3 68 68 NW 14 22 30.45 1031 10 16.0934 0 0
12:35 pm 12:35 Sunny 31 -0.7 21 -6.2 67 67 NW 12 19 30.42 1030 10 16.0934 0 0
12:55 pm 12:55 Sunny 31 -0.3 22 -5.7 67 67 WNW 12 19 30.42 1030 10 16.0934 0 0
1:15 pm 13:15 Sunny 32 -0.1 22 -5.8 66 66 WNW 12 19 30.42 1030 10 16.0934 0 0
1:35 pm 13:35 Sunny 32 0 22 -5.6 66 66 NW 9 15 30.42 1030 10 16.0934 0 0
1:55 pm 13:55 Sunny 33 0.5 21 -6.2 61 61 NW 13 20 30.39 1029 10 16.0934 0 0
2:15 pm 14:15 Sunny 33 0.3 21 -6.1 63 63 NW 14 22 30.39 1029 10 16.0934 0 0
2:35 pm 14:35 Sunny 33 0.3 22 -5.6 65 65 WNW 10 17 30.39 1029 10 16.0934 0 0
2:55 pm 14:55 Sunny 33 0.7 22 -5.8 62 62 WNW 13 20 30.39 1029 10 16.0934 0 0
3:15 pm 15:15 Sunny 33 0.5 22 -5.7 64 64 NW 9 15 30.39 1029 10 16.0934 0 0
3:35 pm 15:35 Sunny 33 0.6 22 -5.5 64 64 NW 10 17 30.39 1029 10 16.0934 0 0
3:55 pm 15:55 Sunny 33 0.5 22 -5.5 64 64 WNW 10 17 30.39 1029 10 16.0934 0 0
4:15 pm 16:15 Sunny 32 0 22 -5.6 66 66 NW 12 19 30.42 1030 10 16.0934 0 0
4:35 pm 16:35 Sunny 32 -0.2 20 -6.6 62 62 NNW 12 19 30.42 1030 10 16.0934 0 0
4:55 pm 16:55 Sunny 31 -0.6 21 -6.3 66 66 NNW 10 17 30.42 1030 10 16.0934 0 0
5:15 pm 17:15 Clear 29 -1.5 21 -6 72 72 NW 8 13 30.42 1030 10 16.0934 0 0
5:35 pm 17:35 Clear 29 -1.9 21 -6 74 74 NW 6 9 30.42 1030 10 16.0934 0 0
5:55 pm 17:55 Partly Cloudy 27 -2.8 19 -7 73 73 NW 7 11 30.45 1031 10 16.0934 0 0
6:15 pm 18:15 Partly Cloudy 26 -3.6 19 -7.2 76 76 NW 6 9 30.45 1031 10 16.0934 0 0
6:35 pm 18:35 Partly Cloudy 23 -4.8 18 -7.9 79 79 NW 6 9 30.45 1031 10 16.0934 0 0
6:55 pm 18:55 Clear 23 -5.1 17 -8.2 79 79 NW 9 15 30.45 1031 10 16.0934 0 0
7:15 pm 19:15 Clear 22 -5.6 17 -8.3 82 82 NW 8 13 30.48 1032 10 16.0934 0 0
7:35 pm 19:35 Clear 21 -6.3 16 -8.8 83 83 NW 8 13 30.48 1032 10 16.0934 0 0
7:55 pm 19:55 Clear 20 -6.7 16 -9 84 84 NW 7 11 30.48 1032 10 16.0934 0 0
8:15 pm 20:15 Clear 18 -7.6 15 -9.6 86 86 WNW 6 9 30.48 1032 10 16.0934 0 0
8:35 pm 20:35 Clear 18 -7.7 14 -9.8 85 85 WNW 7 11 30.48 1032 10 16.0934 0 0
8:55 pm 20:55 Clear 18 -7.7 15 -9.7 86 86 WNW 7 11 30.48 1032 10 16.0934 0 0
9:15 pm 21:15 Clear 17 -8.1 14 -10.1 86 86 WNW 8 13 30.48 1032 10 16.0934 0 0
9:35 pm 21:35 Clear 18 -7.8 14 -9.9 85 85 WNW 7 11 30.48 1032 10 16.0934 0 0
9:55 pm 21:55 Clear 18 -7.8 15 -9.7 86 86 WNW 7 11 30.48 1032 10 16.0934 0 0
10:15 pm 22:15 Clear 18 -7.7 15 -9.7 86 86 WNW 9 15 30.48 1032 10 16.0934 0 0
10:35 pm 22:35 Clear 17 -8.5 13 -10.5 86 86 WNW 7 11 30.5 1033 10 16.0934 0 0
10:55 pm 22:55 Clear 17 -8.5 13 -10.5 86 86 WNW 8 13 30.5 1033 10 16.0934 0 0
11:15 pm 23:15 Clear 17 -8.5 13 -10.5 86 86 WNW 7 11 30.5 1033 10 16.0934 0 0
11:35 pm 23:35 Clear 17 -8.5 13 -10.5 86 86 WNW 7 11 30.5 1033 10 16.0934 0 0
11:55 pm 23:55 Clear 18 -8 14 -10.1 85 85 WNW 10 17 30.45 1031 10 16.0934 0 0

Powered by AerisWeather